contact:dominique.lefevre@mio.osupytheas.fr, maurice.libes@osupytheas.fr, didier.mallarino@osupytheas.fr
Project:EMSO http://www.emso-fr.org/EMSO-France
Depth: 2436.0 m
Title:EMSO Ligure Ouest : Data MII capteur MICROCAT
DateTime_Computer,Latitude,Longitude,Temperature,Conductivity,Pressure,DateTime_Instrument
DateTime_Computer,Latitude,Longitude,degC,S m-1,dbar,DateTime_Instrument
2021-06-03T00:02:40Z,42.805,6.029,13.2986,4.60009,2470.53,2021-6-03T02:03:52Z
2021-06-03T00:05:43Z,42.805,6.029,13.2991,4.60003,2470.53,2021-6-03T02:06:55Z
2021-06-03T00:08:46Z,42.805,6.029,13.2990,4.60004,2470.577,2021-6-03T02:09:58Z
2021-06-03T00:11:49Z,42.805,6.029,13.2990,4.60007,2470.53,2021-6-03T02:13:02Z
2021-06-03T00:14:52Z,42.805,6.029,13.2990,4.60011,2470.544,2021-6-03T02:16:05Z
2021-06-03T00:17:55Z,42.805,6.029,13.2987,4.60016,2470.53,2021-6-03T02:19:08Z
2021-06-03T00:20:58Z,42.805,6.029,13.2986,4.60005,2470.553,2021-6-03T02:22:11Z
2021-06-03T00:24:01Z,42.805,6.029,13.2987,4.60007,2470.567,2021-6-03T02:25:14Z
2021-06-03T00:27:05Z,42.805,6.029,13.2990,4.60018,2470.591,2021-6-03T02:28:17Z
2021-06-03T00:30:08Z,42.805,6.029,13.2986,4.60009,2470.553,2021-6-03T02:31:20Z
2021-06-03T00:33:11Z,42.805,6.029,13.2988,4.60009,2470.591,2021-6-03T02:34:23Z
2021-06-03T00:36:14Z,42.805,6.029,13.2986,4.60015,2470.624,2021-6-03T02:37:26Z
2021-06-03T00:39:17Z,42.805,6.029,13.2987,4.60020,2470.567,2021-6-03T02:40:30Z
2021-06-03T00:42:20Z,42.805,6.029,13.2990,4.60010,2470.577,2021-6-03T02:43:33Z
2021-06-03T00:45:23Z,42.805,6.029,13.2990,4.60018,2470.614,2021-6-03T02:46:36Z
2021-06-03T00:48:26Z,42.805,6.029,13.2986,4.60019,2470.591,2021-6-03T02:49:39Z
2021-06-03T00:51:30Z,42.805,6.029,13.2986,4.60015,2470.591,2021-6-03T02:52:42Z
2021-06-03T00:54:33Z,42.805,6.029,13.2991,4.60019,2470.577,2021-6-03T02:55:45Z
2021-06-03T00:57:36Z,42.805,6.029,13.2990,4.60011,2470.577,2021-6-03T02:58:48Z
2021-06-03T01:00:39Z,42.805,6.029,13.2985,4.60011,2470.591,2021-6-03T03:01:51Z
2021-06-03T01:03:42Z,42.805,6.029,13.2987,4.60016,2470.591,2021-6-03T03:04:55Z
2021-06-03T01:06:45Z,42.805,6.029,13.2990,4.60014,2470.614,2021-6-03T03:07:58Z
2021-06-03T01:09:48Z,42.805,6.029,13.2992,4.60015,2470.591,2021-6-03T03:11:01Z
2021-06-03T01:12:51Z,42.805,6.029,13.2987,4.60036,2470.6,2021-6-03T03:14:04Z
2021-06-03T01:15:55Z,42.805,6.029,13.2987,4.60030,2470.6,2021-6-03T03:17:07Z
2021-06-03T01:18:58Z,42.805,6.029,13.2989,4.60025,2470.591,2021-6-03T03:20:10Z
2021-06-03T01:22:01Z,42.805,6.029,13.2986,4.60021,2470.6,2021-6-03T03:23:13Z
2021-06-03T01:25:04Z,42.805,6.029,13.2991,4.60030,2470.553,2021-6-03T03:26:16Z
2021-06-03T01:28:07Z,42.805,6.029,13.2989,4.60033,2470.567,2021-6-03T03:29:20Z
2021-06-03T01:31:10Z,42.805,6.029,13.2993,4.60022,2470.577,2021-6-03T03:32:23Z
2021-06-03T01:34:13Z,42.805,6.029,13.2989,4.60050,2470.591,2021-6-03T03:35:26Z
2021-06-03T01:37:16Z,42.805,6.029,13.3026,4.60054,2470.577,2021-6-03T03:38:29Z
2021-06-03T01:40:19Z,42.805,6.029,13.3048,4.60050,2470.577,2021-6-03T03:41:32Z
2021-06-03T01:43:23Z,42.805,6.029,13.2990,4.60059,2470.6,2021-6-03T03:44:35Z
2021-06-03T01:46:26Z,42.805,6.029,13.3019,4.60042,2470.577,2021-6-03T03:47:38Z
2021-06-03T01:49:29Z,42.805,6.029,13.3006,4.60054,2470.577,2021-6-03T03:50:41Z
2021-06-03T01:52:32Z,42.805,6.029,13.3043,4.60062,2470.614,2021-6-03T03:53:44Z
2021-06-03T01:55:35Z,42.805,6.029,13.3044,4.60029,2470.577,2021-6-03T03:56:48Z
2021-06-03T01:58:38Z,42.805,6.029,13.3031,4.60094,2470.577,2021-6-03T03:59:51Z
2021-06-03T02:01:41Z,42.805,6.029,13.3050,4.60037,2470.614,2021-6-03T04:02:54Z
2021-06-03T02:04:44Z,42.805,6.029,13.3031,4.60046,2470.577,2021-6-03T04:05:57Z
2021-06-03T02:07:48Z,42.805,6.029,13.3030,4.60042,2470.577,2021-6-03T04:09:00Z
2021-06-03T02:10:51Z,42.805,6.029,13.3052,4.60079,2470.591,2021-6-03T04:12:03Z
2021-06-03T02:13:54Z,42.805,6.029,13.3060,4.60075,2470.591,2021-6-03T04:15:06Z
2021-06-03T02:16:57Z,42.805,6.029,13.3052,4.60053,2470.591,2021-6-03T04:18:09Z
2021-06-03T02:20:00Z,42.805,6.029,13.3048,4.60034,2470.591,2021-6-03T04:21:13Z
2021-06-03T02:23:03Z,42.805,6.029,13.3051,4.60040,2470.6,2021-6-03T04:24:16Z
2021-06-03T02:26:06Z,42.805,6.029,13.3054,4.60037,2470.567,2021-6-03T04:27:19Z
2021-06-03T02:29:09Z,42.805,6.029,13.3046,4.60029,2470.591,2021-6-03T04:30:22Z
2021-06-03T02:32:13Z,42.805,6.029,13.3039,4.60025,2470.6,2021-6-03T04:33:25Z
2021-06-03T02:35:16Z,42.805,6.029,13.3030,4.60039,2470.591,2021-6-03T04:36:28Z
2021-06-03T02:38:19Z,42.805,6.029,13.3052,4.60028,2470.661,2021-6-03T04:39:31Z
2021-06-03T02:41:22Z,42.805,6.029,13.3054,4.60024,2470.6,2021-6-03T04:42:34Z
2021-06-03T02:44:25Z,42.805,6.029,13.3063,4.60030,2470.591,2021-6-03T04:45:38Z
2021-06-03T02:47:28Z,42.805,6.029,13.3048,4.60033,2470.591,2021-6-03T04:48:41Z
2021-06-03T02:50:31Z,42.805,6.029,13.3070,4.60033,2470.591,2021-6-03T04:51:44Z
2021-06-03T02:53:34Z,42.805,6.029,13.3069,4.60033,2470.577,2021-6-03T04:54:47Z
2021-06-03T02:56:37Z,42.805,6.029,13.3061,4.60039,2470.614,2021-6-03T04:57:50Z
2021-06-03T02:59:41Z,42.805,6.029,13.3046,4.60038,2470.591,2021-6-03T05:00:53Z
2021-06-03T03:02:44Z,42.805,6.029,13.3041,4.60036,2470.614,2021-6-03T05:03:56Z
2021-06-03T03:05:47Z,42.805,6.029,13.3041,4.60049,2470.577,2021-6-03T05:06:59Z
2021-06-03T03:08:50Z,42.805,6.029,13.3049,4.60033,2470.614,2021-6-03T05:10:02Z
2021-06-03T03:11:53Z,42.805,6.029,13.3059,4.60034,2470.604,2021-6-03T05:13:06Z
2021-06-03T03:14:56Z,42.805,6.029,13.3056,4.60042,2470.577,2021-6-03T05:16:09Z
2021-06-03T03:17:59Z,42.805,6.029,13.3041,4.60033,2470.614,2021-6-03T05:19:12Z
2021-06-03T03:21:02Z,42.805,6.029,13.3043,4.60033,2470.577,2021-6-03T05:22:15Z
2021-06-03T03:24:05Z,42.805,6.029,13.3040,4.60042,2470.614,2021-6-03T05:25:18Z
2021-06-03T03:27:09Z,42.805,6.029,13.3035,4.60023,2470.577,2021-6-03T05:28:21Z
2021-06-03T03:30:12Z,42.805,6.029,13.3058,4.60033,2470.591,2021-6-03T05:31:24Z
2021-06-03T03:33:15Z,42.805,6.029,13.3045,4.60038,2470.591,2021-6-03T05:34:27Z
2021-06-03T03:36:18Z,42.805,6.029,13.3051,4.60039,2470.591,2021-6-03T05:37:31Z
2021-06-03T03:39:21Z,42.805,6.029,13.3043,4.60041,2470.577,2021-6-03T05:40:34Z
2021-06-03T03:42:24Z,42.805,6.029,13.3038,4.60035,2470.567,2021-6-03T05:43:37Z
2021-06-03T03:45:27Z,42.805,6.029,13.3045,4.60027,2470.628,2021-6-03T05:46:40Z
2021-06-03T03:48:30Z,42.805,6.029,13.3033,4.60040,2470.577,2021-6-03T05:49:43Z
2021-06-03T03:51:34Z,42.805,6.029,13.3040,4.60039,2470.6,2021-6-03T05:52:46Z
2021-06-03T03:54:37Z,42.805,6.029,13.3040,4.60034,2470.591,2021-6-03T05:55:49Z
2021-06-03T03:57:40Z,42.805,6.029,13.3035,4.60028,2470.6,2021-6-03T05:58:52Z
2021-06-03T04:00:43Z,42.805,6.029,13.3036,4.60041,2470.591,2021-6-03T06:01:55Z
2021-06-03T04:03:46Z,42.805,6.029,13.3039,4.60039,2470.591,2021-6-03T06:04:59Z
2021-06-03T04:06:49Z,42.805,6.029,13.3029,4.60036,2470.577,2021-6-03T06:08:02Z
2021-06-03T04:09:52Z,42.805,6.029,13.3037,4.60035,2470.577,2021-6-03T06:11:05Z
2021-06-03T04:12:55Z,42.805,6.029,13.3044,4.60039,2470.614,2021-6-03T06:14:08Z
2021-06-03T04:15:58Z,42.805,6.029,13.3039,4.60032,2470.591,2021-6-03T06:17:11Z
2021-06-03T04:19:02Z,42.805,6.029,13.3038,4.60035,2470.577,2021-6-03T06:20:14Z
2021-06-03T04:22:05Z,42.805,6.029,13.3050,4.60032,2470.577,2021-6-03T06:23:17Z
2021-06-03T04:25:08Z,42.805,6.029,13.3040,4.60026,2470.577,2021-6-03T06:26:20Z
2021-06-03T04:28:11Z,42.805,6.029,13.3043,4.60031,2470.553,2021-6-03T06:29:24Z
2021-06-03T04:31:14Z,42.805,6.029,13.3034,4.60034,2470.553,2021-6-03T06:32:27Z
2021-06-03T04:34:17Z,42.805,6.029,13.3041,4.60028,2470.553,2021-6-03T06:35:30Z
2021-06-03T04:37:20Z,42.805,6.029,13.3028,4.60027,2470.577,2021-6-03T06:38:33Z
2021-06-03T04:40:23Z,42.805,6.029,13.3026,4.60032,2470.567,2021-6-03T06:41:36Z
2021-06-03T04:43:27Z,42.805,6.029,13.3028,4.60034,2470.591,2021-6-03T06:44:39Z
2021-06-03T04:46:30Z,42.805,6.029,13.3057,4.60026,2470.591,2021-6-03T06:47:42Z
2021-06-03T04:49:33Z,42.805,6.029,13.3036,4.60032,2470.567,2021-6-03T06:50:45Z
2021-06-03T04:52:36Z,42.805,6.029,13.3038,4.60022,2470.553,2021-6-03T06:53:49Z
2021-06-03T04:55:39Z,42.805,6.029,13.3026,4.60029,2470.567,2021-6-03T06:56:52Z
2021-06-03T04:58:42Z,42.805,6.029,13.3028,4.60054,2470.6,2021-6-03T06:59:55Z
2021-06-03T05:01:45Z,42.805,6.029,13.3031,4.60029,2470.577,2021-6-03T07:02:58Z
2021-06-03T05:04:48Z,42.805,6.029,13.3029,4.60035,2470.544,2021-6-03T07:06:01Z
2021-06-03T05:07:52Z,42.805,6.029,13.3034,4.60027,2470.567,2021-6-03T07:09:04Z
2021-06-03T05:10:55Z,42.805,6.029,13.3027,4.60028,2470.53,2021-6-03T07:12:07Z
2021-06-03T05:13:58Z,42.805,6.029,13.3024,4.60030,2470.591,2021-6-03T07:15:10Z
2021-06-03T05:17:01Z,42.805,6.029,13.3051,4.60037,2470.591,2021-6-03T07:18:13Z
2021-06-03T05:20:04Z,42.805,6.029,13.3027,4.60028,2470.614,2021-6-03T07:21:17Z
2021-06-03T05:23:07Z,42.805,6.029,13.3022,4.60026,2470.553,2021-6-03T07:24:20Z
2021-06-03T05:26:10Z,42.805,6.029,13.3022,4.60026,2470.577,2021-6-03T07:27:23Z
2021-06-03T05:29:13Z,42.805,6.029,13.3023,4.60023,2470.53,2021-6-03T07:30:26Z
2021-06-03T05:32:16Z,42.805,6.029,13.3027,4.60029,2470.544,2021-6-03T07:33:29Z
2021-06-03T05:35:20Z,42.805,6.029,13.3024,4.60021,2470.567,2021-6-03T07:36:32Z
2021-06-03T05:38:23Z,42.805,6.029,13.3024,4.60024,2470.553,2021-6-03T07:39:35Z
2021-06-03T05:41:26Z,42.805,6.029,13.3021,4.60024,2470.53,2021-6-03T07:42:38Z
2021-06-03T05:44:29Z,42.805,6.029,13.3023,4.60031,2470.544,2021-6-03T07:45:42Z
2021-06-03T05:47:32Z,42.805,6.029,13.3018,4.60033,2470.544,2021-6-03T07:48:45Z
2021-06-03T05:50:35Z,42.805,6.029,13.3021,4.60021,2470.52,2021-6-03T07:51:48Z
2021-06-03T05:53:38Z,42.805,6.029,13.3029,4.60018,2470.53,2021-6-03T07:54:51Z
2021-06-03T05:56:41Z,42.805,6.029,13.3024,4.60026,2470.544,2021-6-03T07:57:54Z
2021-06-03T05:59:45Z,42.805,6.029,13.3021,4.60017,2470.544,2021-6-03T08:00:57Z
2021-06-03T06:02:48Z,42.805,6.029,13.3026,4.60021,2470.507,2021-6-03T08:04:00Z
2021-06-03T06:05:51Z,42.805,6.029,13.3026,4.60029,2470.567,2021-6-03T08:07:03Z
2021-06-03T06:08:54Z,42.805,6.029,13.3024,4.60026,2470.53,2021-6-03T08:10:06Z
2021-06-03T06:11:57Z,42.805,6.029,13.3026,4.60030,2470.507,2021-6-03T08:13:10Z
2021-06-03T06:15:00Z,42.805,6.029,13.3024,4.60026,2470.53,2021-6-03T08:16:13Z
2021-06-03T06:18:03Z,42.805,6.029,13.3027,4.60019,2470.52,2021-6-03T08:19:16Z
2021-06-03T06:21:06Z,42.805,6.029,13.3022,4.60032,2470.507,2021-6-03T08:22:19Z
2021-06-03T06:24:09Z,42.805,6.029,13.3031,4.60024,2470.544,2021-6-03T08:25:22Z
2021-06-03T06:27:13Z,42.805,6.029,13.3026,4.60024,2470.507,2021-6-03T08:28:25Z
2021-06-03T06:30:16Z,42.805,6.029,13.3026,4.60025,2470.544,2021-6-03T08:31:28Z
2021-06-03T06:33:19Z,42.805,6.029,13.3029,4.60018,2470.52,2021-6-03T08:34:31Z
2021-06-03T06:36:22Z,42.805,6.029,13.3026,4.60016,2470.544,2021-6-03T08:37:35Z
2021-06-03T06:39:25Z,42.805,6.029,13.3019,4.60024,2470.544,2021-6-03T08:40:38Z
2021-06-03T06:42:28Z,42.805,6.029,13.3019,4.60021,2470.507,2021-6-03T08:43:41Z
2021-06-03T06:45:31Z,42.805,6.029,13.3019,4.60015,2470.483,2021-6-03T08:46:44Z
2021-06-03T06:48:34Z,42.805,6.029,13.3013,4.60020,2470.507,2021-6-03T08:49:47Z
2021-06-03T06:51:38Z,42.805,6.029,13.3022,4.60021,2470.53,2021-6-03T08:52:50Z
2021-06-03T06:54:41Z,42.805,6.029,13.3012,4.60019,2470.544,2021-6-03T08:55:53Z
2021-06-03T06:57:44Z,42.805,6.029,13.3014,4.60020,2470.497,2021-6-03T08:58:56Z
2021-06-03T07:00:47Z,42.805,6.029,13.3014,4.60023,2470.46,2021-6-03T09:01:59Z
2021-06-03T07:03:50Z,42.805,6.029,13.3013,4.60036,2470.507,2021-6-03T09:05:03Z
2021-06-03T07:06:53Z,42.805,6.029,13.3021,4.60021,2470.483,2021-6-03T09:08:06Z
2021-06-03T07:09:56Z,42.805,6.029,13.3011,4.60031,2470.507,2021-6-03T09:11:09Z
2021-06-03T07:12:59Z,42.805,6.029,13.3019,4.60016,2470.52,2021-6-03T09:14:12Z
2021-06-03T07:16:02Z,42.805,6.029,13.3012,4.60013,2470.507,2021-6-03T09:17:15Z
2021-06-03T07:19:06Z,42.805,6.029,13.3021,4.60016,2470.497,2021-6-03T09:20:18Z
2021-06-03T07:22:09Z,42.805,6.029,13.3015,4.60019,2470.46,2021-6-03T09:23:21Z
2021-06-03T07:25:12Z,42.805,6.029,13.3017,4.60023,2470.497,2021-6-03T09:26:24Z
2021-06-03T07:28:15Z,42.805,6.029,13.3018,4.60012,2470.483,2021-6-03T09:29:28Z
2021-06-03T07:31:18Z,42.805,6.029,13.3014,4.60021,2470.483,2021-6-03T09:32:31Z
2021-06-03T07:34:21Z,42.805,6.029,13.3009,4.60023,2470.483,2021-6-03T09:35:34Z
2021-06-03T07:37:24Z,42.805,6.029,13.3009,4.60016,2470.497,2021-6-03T09:38:37Z
2021-06-03T07:40:27Z,42.805,6.029,13.3015,4.60019,2470.483,2021-6-03T09:41:40Z
2021-06-03T07:43:31Z,42.805,6.029,13.3040,4.60026,2470.483,2021-6-03T09:44:43Z
2021-06-03T07:46:34Z,42.805,6.029,13.3010,4.60031,2470.474,2021-6-03T09:47:46Z
2021-06-03T07:49:37Z,42.805,6.029,13.3015,4.60019,2470.483,2021-6-03T09:50:49Z
2021-06-03T07:52:40Z,42.805,6.029,13.3025,4.60019,2470.45,2021-6-03T09:53:52Z
2021-06-03T07:55:43Z,42.805,6.029,13.3022,4.60026,2470.437,2021-6-03T09:56:56Z
2021-06-03T07:58:46Z,42.805,6.029,13.3019,4.60019,2470.483,2021-6-03T09:59:59Z
2021-06-03T08:01:49Z,42.805,6.029,13.3010,4.60011,2470.497,2021-6-03T10:03:02Z
2021-06-03T08:04:52Z,42.805,6.029,13.3009,4.60051,2470.46,2021-6-03T10:06:05Z
2021-06-03T08:07:56Z,42.805,6.029,13.3020,4.60026,2470.474,2021-6-03T10:09:08Z
2021-06-03T08:10:59Z,42.805,6.029,13.3011,4.60019,2470.437,2021-6-03T10:12:11Z
2021-06-03T08:14:02Z,42.805,6.029,13.3015,4.60015,2470.437,2021-6-03T10:15:14Z
2021-06-03T08:17:05Z,42.805,6.029,13.3007,4.60009,2470.46,2021-6-03T10:18:17Z
2021-06-03T08:20:08Z,42.805,6.029,13.3012,4.60014,2470.45,2021-6-03T10:21:21Z
2021-06-03T08:23:11Z,42.805,6.029,13.3015,4.60014,2470.413,2021-6-03T10:24:24Z
2021-06-03T08:26:14Z,42.805,6.029,13.3017,4.60019,2470.413,2021-6-03T10:27:27Z
2021-06-03T08:29:17Z,42.805,6.029,13.3007,4.60018,2470.46,2021-6-03T10:30:30Z
2021-06-03T08:32:21Z,42.805,6.029,13.3009,4.60023,2470.437,2021-6-03T10:33:33Z
2021-06-03T08:35:24Z,42.805,6.029,13.3006,4.60031,2470.437,2021-6-03T10:36:36Z
2021-06-03T08:38:27Z,42.805,6.029,13.3009,4.60023,2470.46,2021-6-03T10:39:39Z
2021-06-03T08:41:30Z,42.805,6.029,13.3012,4.60008,2470.46,2021-6-03T10:42:42Z
2021-06-03T08:44:33Z,42.805,6.029,13.3014,4.60021,2470.413,2021-6-03T10:45:46Z
2021-06-03T08:47:36Z,42.805,6.029,13.3015,4.60029,2470.437,2021-6-03T10:48:49Z
2021-06-03T08:50:39Z,42.805,6.029,13.3036,4.60036,2470.437,2021-6-03T10:51:52Z
2021-06-03T08:53:42Z,42.805,6.029,13.3026,4.60038,2470.46,2021-6-03T10:54:55Z
2021-06-03T08:56:46Z,42.805,6.029,13.3019,4.60037,2470.45,2021-6-03T10:57:58Z
2021-06-03T08:59:49Z,42.805,6.029,13.3006,4.60033,2470.437,2021-6-03T11:01:01Z
2021-06-03T09:02:52Z,42.805,6.029,13.3012,4.60024,2470.437,2021-6-03T11:04:04Z
2021-06-03T09:05:55Z,42.805,6.029,13.3009,4.60028,2470.413,2021-6-03T11:07:07Z
2021-06-03T09:08:58Z,42.805,6.029,13.3000,4.60026,2470.45,2021-6-03T11:10:11Z
2021-06-03T09:12:01Z,42.805,6.029,13.3024,4.60031,2470.497,2021-6-03T11:13:14Z
2021-06-03T09:15:04Z,42.805,6.029,13.3007,4.60031,2470.46,2021-6-03T11:16:17Z
2021-06-03T09:18:07Z,42.805,6.029,13.3023,4.60043,2470.413,2021-6-03T11:19:20Z
2021-06-03T09:21:11Z,42.805,6.029,13.2996,4.60030,2470.45,2021-6-03T11:22:23Z
2021-06-03T09:24:14Z,42.805,6.029,13.3000,4.60040,2470.46,2021-6-03T11:25:26Z
2021-06-03T09:27:17Z,42.805,6.029,13.3015,4.60056,2470.437,2021-6-03T11:28:29Z
2021-06-03T09:30:20Z,42.805,6.029,13.3009,4.60017,2470.474,2021-6-03T11:31:32Z
2021-06-03T09:33:23Z,42.805,6.029,13.3011,4.60027,2470.437,2021-6-03T11:34:36Z
2021-06-03T09:36:26Z,42.805,6.029,13.3016,4.60036,2470.45,2021-6-03T11:37:39Z
2021-06-03T09:39:29Z,42.805,6.029,13.2996,4.60033,2470.46,2021-6-03T11:40:42Z
2021-06-03T09:42:32Z,42.805,6.029,13.2999,4.60031,2470.46,2021-6-03T11:43:45Z
2021-06-03T09:45:36Z,42.805,6.029,13.2998,4.60017,2470.45,2021-6-03T11:46:48Z
2021-06-03T09:48:39Z,42.805,6.029,13.2996,4.60032,2470.45,2021-6-03T11:49:51Z
2021-06-03T09:51:42Z,42.805,6.029,13.2990,4.60013,2470.427,2021-6-03T11:52:54Z
2021-06-03T09:54:45Z,42.805,6.029,13.2994,4.60008,2470.437,2021-6-03T11:55:57Z
2021-06-03T09:57:48Z,42.805,6.029,13.2994,4.60009,2470.46,2021-6-03T11:59:01Z
2021-06-03T10:00:51Z,42.805,6.029,13.2990,4.60022,2470.46,2021-6-03T12:02:04Z
2021-06-03T10:03:54Z,42.805,6.029,13.2983,4.60011,2470.45,2021-6-03T12:05:07Z
2021-06-03T10:06:57Z,42.805,6.029,13.2987,4.60001,2470.437,2021-6-03T12:08:10Z
2021-06-03T10:10:00Z,42.805,6.029,13.2984,4.60008,2470.46,2021-6-03T12:11:13Z
2021-06-03T10:13:04Z,42.805,6.029,13.2987,4.60002,2470.507,2021-6-03T12:14:16Z
2021-06-03T10:16:07Z,42.805,6.029,13.2986,4.60002,2470.427,2021-6-03T12:17:19Z
2021-06-03T10:19:10Z,42.805,6.029,13.2983,4.60009,2470.45,2021-6-03T12:20:22Z
2021-06-03T10:22:13Z,42.805,6.029,13.2989,4.60010,2470.413,2021-6-03T12:23:26Z
2021-06-03T10:25:16Z,42.805,6.029,13.2986,4.60000,2470.427,2021-6-03T12:26:29Z
2021-06-03T10:28:19Z,42.805,6.029,13.2990,4.60001,2470.45,2021-6-03T12:29:32Z
2021-06-03T10:31:22Z,42.805,6.029,13.2986,4.60000,2470.437,2021-6-03T12:32:35Z
2021-06-03T10:34:25Z,42.805,6.029,13.2988,4.60006,2470.46,2021-6-03T12:35:38Z
2021-06-03T10:37:29Z,42.805,6.029,13.2984,4.60001,2470.437,2021-6-03T12:38:41Z
2021-06-03T10:40:32Z,42.805,6.029,13.2986,4.60003,2470.437,2021-6-03T12:41:44Z
2021-06-03T10:43:35Z,42.805,6.029,13.2987,4.60003,2470.423,2021-6-03T12:44:47Z
2021-06-03T10:46:38Z,42.805,6.029,13.2991,4.60001,2470.437,2021-6-03T12:47:51Z
2021-06-03T10:49:41Z,42.805,6.029,13.2991,4.60002,2470.46,2021-6-03T12:50:54Z
2021-06-03T10:52:44Z,42.805,6.029,13.2986,4.59999,2470.45,2021-6-03T12:53:57Z
2021-06-03T10:55:47Z,42.805,6.029,13.2989,4.60001,2470.474,2021-6-03T12:57:00Z
2021-06-03T10:58:50Z,42.805,6.029,13.2987,4.60000,2470.483,2021-6-03T13:00:03Z
2021-06-03T11:01:54Z,42.805,6.029,13.2987,4.59999,2470.46,2021-6-03T13:03:06Z
2021-06-03T11:04:57Z,42.805,6.029,13.2989,4.59999,2470.46,2021-6-03T13:06:09Z
2021-06-03T11:08:00Z,42.805,6.029,13.2983,4.60001,2470.474,2021-6-03T13:09:12Z
2021-06-03T11:11:03Z,42.805,6.029,13.2988,4.59998,2470.46,2021-6-03T13:12:16Z
2021-06-03T11:14:06Z,42.805,6.029,13.2987,4.59999,2470.474,2021-6-03T13:15:19Z
2021-06-03T11:17:09Z,42.805,6.029,13.2988,4.60000,2470.46,2021-6-03T13:18:22Z
2021-06-03T11:20:12Z,42.805,6.029,13.2987,4.59999,2470.46,2021-6-03T13:21:25Z
2021-06-03T11:23:15Z,42.805,6.029,13.2988,4.60002,2470.474,2021-6-03T13:24:28Z
2021-06-03T11:26:19Z,42.805,6.029,13.2989,4.59999,2470.45,2021-6-03T13:27:31Z
2021-06-03T11:29:22Z,42.805,6.029,13.2987,4.59998,2470.507,2021-6-03T13:30:34Z
2021-06-03T11:32:25Z,42.805,6.029,13.2990,4.59998,2470.507,2021-6-03T13:33:37Z
2021-06-03T11:35:28Z,42.805,6.029,13.2989,4.60001,2470.483,2021-6-03T13:36:40Z
2021-06-03T11:38:31Z,42.805,6.029,13.2987,4.59997,2470.45,2021-6-03T13:39:44Z
2021-06-03T11:41:34Z,42.805,6.029,13.2986,4.59998,2470.483,2021-6-03T13:42:47Z
2021-06-03T11:44:37Z,42.805,6.029,13.2989,4.59996,2470.497,2021-6-03T13:45:50Z
2021-06-03T11:47:40Z,42.805,6.029,13.2987,4.59997,2470.474,2021-6-03T13:48:53Z
2021-06-03T11:50:44Z,42.805,6.029,13.2990,4.59997,2470.483,2021-6-03T13:51:56Z
2021-06-03T11:53:47Z,42.805,6.029,13.2988,4.59996,2470.483,2021-6-03T13:54:59Z
2021-06-03T11:56:50Z,42.805,6.029,13.2988,4.59998,2470.507,2021-6-03T13:58:02Z
2021-06-03T11:59:53Z,42.805,6.029,13.2986,4.59999,2470.46,2021-6-03T14:01:05Z
2021-06-03T12:02:56Z,42.805,6.029,13.2987,4.59997,2470.483,2021-6-03T14:04:09Z
2021-06-03T12:05:59Z,42.805,6.029,13.2988,4.59999,2470.474,2021-6-03T14:07:12Z
2021-06-03T12:09:02Z,42.805,6.029,13.2987,4.60000,2470.437,2021-6-03T14:10:15Z
2021-06-03T12:12:05Z,42.805,6.029,13.2988,4.59999,2470.507,2021-6-03T14:13:18Z
2021-06-03T12:15:09Z,42.805,6.029,13.2989,4.59998,2470.497,2021-6-03T14:16:21Z
2021-06-03T12:18:12Z,42.805,6.029,13.2991,4.59999,2470.46,2021-6-03T14:19:24Z
2021-06-03T12:21:15Z,42.805,6.029,13.2986,4.60000,2470.46,2021-6-03T14:22:27Z
2021-06-03T12:24:18Z,42.805,6.029,13.2986,4.59999,2470.46,2021-6-03T14:25:30Z
2021-06-03T12:27:21Z,42.805,6.029,13.2991,4.60002,2470.483,2021-6-03T14:28:34Z
2021-06-03T12:30:24Z,42.805,6.029,13.2990,4.59999,2470.46,2021-6-03T14:31:37Z
2021-06-03T12:33:27Z,42.805,6.029,13.2990,4.60000,2470.52,2021-6-03T14:34:40Z
2021-06-03T12:36:30Z,42.805,6.029,13.2986,4.60000,2470.46,2021-6-03T14:37:43Z
2021-06-03T12:39:34Z,42.805,6.029,13.2987,4.60001,2470.46,2021-6-03T14:40:46Z
2021-06-03T12:42:37Z,42.805,6.029,13.2991,4.60000,2470.483,2021-6-03T14:43:49Z
2021-06-03T12:45:40Z,42.805,6.029,13.2988,4.60001,2470.497,2021-6-03T14:46:52Z
2021-06-03T12:48:43Z,42.805,6.029,13.2991,4.60001,2470.483,2021-6-03T14:49:55Z
2021-06-03T12:51:46Z,42.805,6.029,13.2991,4.59999,2470.46,2021-6-03T14:52:59Z
2021-06-03T12:54:49Z,42.805,6.029,13.2991,4.59998,2470.46,2021-6-03T14:56:02Z
2021-06-03T12:57:52Z,42.805,6.029,13.2990,4.60000,2470.483,2021-6-03T14:59:05Z
2021-06-03T13:00:55Z,42.805,6.029,13.2993,4.60000,2470.47,2021-6-03T15:02:08Z
2021-06-03T13:03:59Z,42.805,6.029,13.2990,4.59999,2470.52,2021-6-03T15:05:11Z
2021-06-03T13:07:02Z,42.805,6.029,13.2991,4.60001,2470.52,2021-6-03T15:08:14Z
2021-06-03T13:10:05Z,42.805,6.029,13.2991,4.60000,2470.46,2021-6-03T15:11:17Z
2021-06-03T13:13:08Z,42.805,6.029,13.2993,4.60000,2470.483,2021-6-03T15:14:20Z
2021-06-03T13:16:11Z,42.805,6.029,13.2989,4.59999,2470.497,2021-6-03T15:17:24Z
2021-06-03T13:19:14Z,42.805,6.029,13.2993,4.60001,2470.53,2021-6-03T15:20:27Z
2021-06-03T13:22:17Z,42.805,6.029,13.2985,4.60001,2470.52,2021-6-03T15:23:30Z
2021-06-03T13:25:20Z,42.805,6.029,13.2987,4.60001,2470.52,2021-6-03T15:26:33Z
2021-06-03T13:28:24Z,42.805,6.029,13.2991,4.60000,2470.483,2021-6-03T15:29:36Z
2021-06-03T13:31:27Z,42.805,6.029,13.2991,4.59999,2470.46,2021-6-03T15:32:39Z
2021-06-03T13:34:30Z,42.805,6.029,13.2990,4.59999,2470.507,2021-6-03T15:35:42Z
2021-06-03T13:37:33Z,42.805,6.029,13.2991,4.59999,2470.474,2021-6-03T15:38:45Z
2021-06-03T13:40:36Z,42.805,6.029,13.2990,4.60001,2470.483,2021-6-03T15:41:49Z
2021-06-03T13:43:39Z,42.805,6.029,13.2991,4.60003,2470.483,2021-6-03T15:44:52Z
2021-06-03T13:46:42Z,42.805,6.029,13.2987,4.60001,2470.507,2021-6-03T15:47:55Z
2021-06-03T13:49:45Z,42.805,6.029,13.2996,4.60002,2470.52,2021-6-03T15:50:58Z
2021-06-03T13:52:48Z,42.805,6.029,13.2994,4.60002,2470.474,2021-6-03T15:54:01Z
2021-06-03T13:55:52Z,42.805,6.029,13.2988,4.60002,2470.46,2021-6-03T15:57:04Z
2021-06-03T13:58:55Z,42.805,6.029,13.2990,4.60001,2470.53,2021-6-03T16:00:07Z
2021-06-03T14:01:58Z,42.805,6.029,13.2986,4.59999,2470.52,2021-6-03T16:03:10Z
2021-06-03T14:05:01Z,42.805,6.029,13.2989,4.59999,2470.497,2021-6-03T16:06:14Z
2021-06-03T14:08:04Z,42.805,6.029,13.2990,4.60001,2470.483,2021-6-03T16:09:17Z
2021-06-03T14:11:07Z,42.805,6.029,13.2989,4.60000,2470.483,2021-6-03T16:12:20Z
2021-06-03T14:14:10Z,42.805,6.029,13.2988,4.59999,2470.474,2021-6-03T16:15:23Z
2021-06-03T14:17:13Z,42.805,6.029,13.2993,4.60004,2470.497,2021-6-03T16:18:26Z
2021-06-03T14:20:17Z,42.805,6.029,13.2994,4.60002,2470.497,2021-6-03T16:21:29Z
2021-06-03T14:23:20Z,42.805,6.029,13.2986,4.60001,2470.483,2021-6-03T16:24:32Z
2021-06-03T14:26:23Z,42.805,6.029,13.2988,4.60003,2470.483,2021-6-03T16:27:35Z
2021-06-03T14:29:26Z,42.805,6.029,13.2987,4.59999,2470.46,2021-6-03T16:30:39Z
2021-06-03T14:32:29Z,42.805,6.029,13.2988,4.59999,2470.507,2021-6-03T16:33:42Z
2021-06-03T14:35:32Z,42.805,6.029,13.2990,4.59999,2470.474,2021-6-03T16:36:45Z
2021-06-03T14:38:35Z,42.805,6.029,13.2989,4.59999,2470.52,2021-6-03T16:39:48Z
2021-06-03T14:41:38Z,42.805,6.029,13.2990,4.59999,2470.507,2021-6-03T16:42:51Z
2021-06-03T14:44:42Z,42.805,6.029,13.2990,4.60000,2470.483,2021-6-03T16:45:54Z
2021-06-03T14:47:45Z,42.805,6.029,13.2990,4.60010,2470.483,2021-6-03T16:48:57Z
2021-06-03T14:50:48Z,42.805,6.029,13.2990,4.60001,2470.52,2021-6-03T16:52:00Z
2021-06-03T14:53:51Z,42.805,6.029,13.2987,4.60002,2470.483,2021-6-03T16:55:04Z
2021-06-03T14:56:54Z,42.805,6.029,13.2986,4.60003,2470.497,2021-6-03T16:58:07Z
2021-06-03T14:59:57Z,42.805,6.029,13.2993,4.59999,2470.507,2021-6-03T17:01:10Z
2021-06-03T15:03:00Z,42.805,6.029,13.2991,4.59999,2470.544,2021-6-03T17:04:13Z
2021-06-03T15:06:03Z,42.805,6.029,13.2989,4.60002,2470.497,2021-6-03T17:07:16Z
2021-06-03T15:09:07Z,42.805,6.029,13.2991,4.60002,2470.497,2021-6-03T17:10:19Z
2021-06-03T15:12:10Z,42.805,6.029,13.2991,4.60002,2470.497,2021-6-03T17:13:22Z
2021-06-03T15:15:13Z,42.805,6.029,13.2992,4.60000,2470.497,2021-6-03T17:16:25Z